Bereket

Turkmenistan     39˚14′48″N   55˚31′01″E
temp.,
°C
wind,
m/s
gust,
m/s
humid.,
%
clouds,
%
prec.,
mm/h
press.,
hPa
HPBL,
m
3 december, thu
thu323:00+3˚e58590 0.0 1028223
02:00+2˚e57610 0.0 1028176
05:00+2˚e585941 0.0 1029203
08:00+1˚e5857100 0.0 1030208
11:00+3˚e6951100 0.0 1031336
14:00+6˚e6847100 0.0 1029454
17:00+6˚ene6845100 0.0 1029520
20:00+3˚ene584953 0.0 1031219
4 december, fri
fri423:00+2˚e584732 0.0 1031203
02:00+2˚e574884 0.0 1031199
05:00+1˚e575078 0.0 1031164
08:00e685111 0.0 1031166
11:00+3˚e79447 0.0 1032361
14:00+5˚e79390 0.0 1030491
17:00+6˚e710390 0.0 1029520
20:00+3˚e711410 0.0 1030304
5 december, sat
sat523:00+2˚e712440 0.0 1029326
02:00+1˚ene712520 0.0 1029331
05:00ene711560 0.0 1028326
08:00−1˚ene7115824 0.0 1028349
11:00+1˚e9134930 0.0 1028549
14:00+4˚e812410 0.0 1027666
17:00+4˚ene812410 0.0 1026716
20:00+2˚ene712480 0.0 1027414
6 december, sun
sun623:00+1˚ene713460 0.0 1027386
02:00ene712555 0.0 1027358
05:00−1˚ene711639 0.0 1026363
08:00−2˚e812594 0.0 1027401
11:00e9124822 0.0 1027557
14:00+3˚ene8104155 0.0 1026668
17:00+3˚ene794171 0.0 1026702
20:00+1˚ene6104688 0.0 1027371
7 december, mon
mon723:00−1˚ene584764 0.0 1028251
02:00−2˚ene58455 0.0 1028263
05:00−2˚ene57438 0.0 1029294
08:00−2˚ene584012 0.0 1030328
11:00−1˚e683510 0.0 1031473
14:00+2˚ene663465 0.0 1030637
17:00+2˚ene563640 0.0 1031601
20:00−1˚ene45429 0.0 1032110